Regional Weather Roundup
Issued by NWS

Home | Current Version | Previous Version | Graphics & Text | Print | Product List | Glossary On
Versions: 1 2 3 4 5 6 7 8 9 10 11 12 13 14 15 16 17 18 19 20 21 22 23 24 25 26 27 28 29 30 31 32 33 34 35 36 37 38 39 40 41 42 43 44 45 46 47 48 49 50
000
ASUS43 KMKX 221100
RWRWI

WISCONSIN REGIONAL WEATHER ROUNDUP
NATIONAL WEATHER SERVICE MILWAUKEE/SULLIVAN WI
600 AM CDT WED OCT 22 2014

NOTE: "FAIR" INDICATES FEW OR NO CLOUDS BELOW 12,000 FEET WITH NO
SIGNIFICANT WEATHER AND/OR OBSTRUCTIONS TO VISIBILITY.

WIZ001-002-006>008-014>016-023>028-221200-
NORTHWEST WISCONSIN

CITY           SKY/WX    TMP DP  RH WIND       PRES   REMARKS
SUPERIOR ARPT  CLEAR     27  26  96 CALM      30.22S
ASHLAND        CLEAR     29  28  96 S6        30.27R WCI  23
HAYWARD        CLEAR     40  33  76 S7        30.26R
SIREN          CLEAR     41  34  77 SE8       30.22S
CUMBERLAND     CLEAR     36  32  87 SE8       30.25R WCI  29
RICE LAKE      CLEAR     37  33  85 SE8       30.28R WCI  31
CHETEK         CLEAR     36  33  90 SE5       30.27R WCI  32
LADYSMITH      CLEAR     34  32  94 SE5       30.30R WCI  30
EAU CLAIRE     CLEAR     37  32  82 S8        30.28R WCI  31
MENOMONIE      CLEAR     35  33  91 E7        30.27R WCI  30
NEW RICHMOND   CLEAR     38  34  85 S7        30.24R WCI  33
OSCEOLA        CLEAR     40  36  85 SE9       30.25R WCI  34
$$

WIZ003>005-009-010-017-018-221200-
NORTH CENTRAL WISCONSIN

CITY           SKY/WX    TMP DP  RH WIND       PRES   REMARKS
MANITOWISH WTR CLEAR     32  32  99 S3        30.29R
ARBOR VITAE    CLEAR     32  30  92 CALM      30.30R
WOODRUFF       CLEAR     32  30  92 CALM      30.30R
RHINELANDER    CLEAR     27  26  96 CALM      30.32R
EAGLE RIVER    CLEAR     28  28 100 CALM      30.30R
LAND O LAKES   CLEAR     22  22  97 CALM      30.31R
PHILLIPS       CLEAR     29  29  97 SE5       30.28R WCI  24
TOMAHAWK       CLEAR     26  26  96 CALM      30.31R
MEDFORD        PTCLDY    32  30  92 SE3       30.30R
MERRILL        PTCLDY    29  29 100 CALM      30.32R
$$

WIZ029-030-035-036-043>047-221200-
CENTRAL WISCONSIN

CITY           SKY/WX    TMP DP  RH WIND       PRES   REMARKS
WAUSAU         PTCLDY    30  28  92 E6        30.32R WCI  24
MOSINEE        CLEAR     28  28 100 E3        30.33R
MARSHFIELD     PTCLDY    32  29  88 CALM      30.32R
STEVENS POINT  PTCLDY    24  22  93 NE3       30.33R
WAUPACA        PTCLDY    31  30  96 CALM      30.34R
WAUTOMA        NOT AVBL
WISC RAPIDS    CLEAR     28  26  92 CALM      30.34R
CAMP DOUGLAS   PTCLDY    25  25 100 SE2       30.32R
$$

WIZ011>013-019>022-031-037>040-048>050-221200-
NORTHEAST WISCONSIN

CITY           SKY/WX    TMP DP  RH WIND       PRES   REMARKS
ANTIGO         PTCLDY    28  28 100 CALM      30.32R
SHAWANO        CLEAR     32  31  94 CALM      30.35R
OCONTO         PTCLDY    25  25 100 CALM      30.35R
STURGEON BAY   PTCLDY    34  28  80 E3        30.35S
GREEN BAY      CLOUDY    32  31  96 CALM      30.35R FOG
MANITOWOC      NOT AVBL
APPLETON       CLEAR     32  30  93 VRB5      30.34R WCI  27
CLINTONVILLE   PTCLDY    30  30 100 CALM      30.34R
OSHKOSH        PTCLDY    31  29  92 CALM      30.33R
$$

WIZ032>034-041-042-053>061-221200-
SOUTHWEST WISCONSIN

CITY           SKY/WX    TMP DP  RH WIND       PRES   REMARKS
LA CROSSE      CLEAR     37  33  85 SE6       30.30R WCI  32
SPARTA         CLEAR     26  25  96 CALM      30.31R
VIROQUA        CLEAR     35  35 100 SE5       30.29R WCI  31
BOSCOBEL       FOG       34  33  96 CALM      30.33R VSB 1/4
PRAIRIE DU CHI CLEAR     37  33  88 E3        30.30R
PLATTEVILLE    PTCLDY    34  33  95 E8        30.31S WCI  27
$$

WIZ056-057-062-063-064-067-068-221200-
SOUTH CENTRAL WISCONSIN

CITY           SKY/WX    TMP DP  RH WIND       PRES   REMARKS
REEDSBURG      MOCLDY    27  27  98 CALM      30.32R
BARABOO/DELLS  PTCLDY    28  27  96 CALM      30.32R
LONE ROCK      NOT AVBL
MINERAL POINT  PTCLDY    36  34  93 SE3       30.30R
MADISON        MOCLDY    27  26  96 CALM      30.33R FOG
MIDDLETON      MOCLDY    29  29 100 CALM      30.33R
WATERTOWN      PTCLDY    28  28 100 CALM      30.32R
MONROE         PTCLDY    36  36 100 NE3       30.30S
JANESVILLE     PTCLDY    30  28  93 CALM      30.32R
$$

WIZ051-052-058>065-066-070>072-221200-
SOUTHEAST WISCONSIN

CITY           SKY/WX    TMP DP  RH WIND       PRES   REMARKS
MILWAUKEE      PTCLDY    36  33  89 NW3       30.32R
WAUKESHA       CLEAR     28  28 100 CALM      30.33R
MILWAUKEE/TIMM CLEAR     32  30  93 CALM      30.33R
RACINE         MOCLDY    36  34  92 NW3       30.34R
BURLINGTON     CLEAR     26  26 100 CALM      30.32R FOG
KENOSHA        CLEAR     32  30  92 CALM      30.32R
FOND DU LAC    PTCLDY    28  26  92 CALM      30.34R
SHEBOYGAN      PTCLDY    29  26  89 NE3       30.33S
WEST BEND      PTCLDY    28  28 100 CALM      30.33R
JUNEAU         PTCLDY    29  28  97 CALM      30.33R
$$

LSZ147-162-221200-
LAKE SUPERIOR

STATION/POSITION TIME  TEMP    WIND        PRES    WAVE
                       AIR SEA DIR/SP/G            HT/PER
                 (UTC) (F)     (DEG/KT/KT) (MB)    (FT/S)
W MID LAKE BUOY  0950   45 46  160/ 14/ 16 1025.0R   3/ 5
DEVILS ISLAND    1000   45     170/  6/  7 1024.9R
PORT WING        1040   42     160/  7/ 10 1023.7S
SAXON HARBOR     1000   33        CALM     1024.4R
$$

LMZ867-665-643>646-221200-
LAKE MICHIGAN

STATION/POSITION TIME  TEMP    WIND        PRES    WAVE
                       AIR SEA DIR/SP/G            HT/PER
                 (UTC) (F)     (DEG/KT/KT) (MB)    (FT/S)
CHAMBERS ISLAND  1000   37      CALM  /  2 1027.4S
N MID LAKE BUOY  0950   44 51  150/  6/ 10 1028.3R   1/ 3
NORTHPORT PIER   1000   43     160/  5/  7 1027.8R
SISTER BAY       0928          150/  5/  6   N/A
KEWAUNEE LAKESHO 1000   32     300/  3/  5 1026.4R
SHEBOYGAN LAKESH 1000   46 49  120/  8/  9 1027.5R
PORT WASHINGTON  1000   36     280/  3/  4 1027.4
ATWATER BUOY     1000   44     290/  6/  8 1027.5R
MILWAUKEE LAKESH 1000   40     320/  6/  7   N/A
S MID LAKE BUOY  0950   46 54  100/ 10/ 12 1026.8R   3/ 6
KENOSHA   LAKESH 1000   39     300/  4/  6 1026.1R
$$

TC  - TEMPERATURE IN CELSIUS
VSB - VISIBILITY IN STATUTE MILES
WCI - WIND CHILL INDEX
HX  - HEAT INDEX




USA.gov is the U.S. government's official web portal to all federal, state and local government web resources and services.